Regional Weather Roundup
Issued by NWS

Home | Current Version | Previous Version | Text Only | Print | Product List | Glossary On
Versions: 1 2 3 4 5 6 7 8 9 10 11 12 13 14 15 16 17 18 19 20 21 22 23 24 25 26 27 28 29 30 31 32 33 34 35 36 37 38 39 40 41 42 43 44 45 46 47 48 49 50
000
ASUS43 KIND 212109
RWRIN

WEATHER ROUNDUP FOR INDIANA
NATIONAL WEATHER SERVICE INDIANAPOLIS IN
500 PM EDT SAT APR 21 2018

NOTE: "FAIR" INDICATES FEW OR NO CLOUDS BELOW 12,000 FEET WITH NO
SIGNIFICANT WEATHER AND/OR OBSTRUCTIONS TO VISIBILITY.

* - STATION DOES NOT REPORT WEATHER SUCH AS PRECIPITATION OR FOG.

+ - STATION NOT QUALITY CONTROLLED BY THE NATIONAL WEATHER SERVICE.
    USE DATA WITH CAUTION...ESPECIALLY DEWPOINT AND RELATIVE
    HUMIDITY OBSERVATIONS.

INZ001>003-010>013-019-020-212200-
NORTHWEST INDIANA

CITY           SKY/WX    TMP DP  RH WIND       PRES   REMARKS
GARY /AIRPORT/ CLOUDY    48  25  40 NE3       30.40F
KNOX *+        PTSUNNY   55  27  33 CALM      30.39F
LA PORTE +     PTSUNNY   53  28  37 SW7       30.40F
MICHIGAN CITY+ FAIR      50  27  40 N5        30.40F
MONTICELLO +   CLOUDY    58  24  27 E9        30.35F
RENSSELAER +   CLOUDY    55  14  19 NE10      30.37F
VALPARAISO     CLOUDY    57  28  33 N9        30.39F

$$

LMZ046-743>745-212200-
SOUTHERN LAKE MICHIGAN

STATION/POSITION TIME  TEMP    WIND        PRES    WAVE
                       AIR SEA DIR/SP/G            HT
                 (UTC) (F)     (DEG/KT/KT) (MB)    (FT)
BURNS HARBOR     2040   44     350/  3/  3 1030.1F
MICHIGAN CITY    2040   42      30/  4/  4   N/A

$$

INZ004-005-014>016-021>024-212200-
NORTH CENTRAL INDIANA

CITY           SKY/WX    TMP DP  RH WIND       PRES   REMARKS
ELKHART        SUNNY     57  27  30 S5        30.39F
GOSHEN         PTSUNNY   55  26  32 S3        30.39F
LOGANSPORT +   CLOUDY    55  23  28 E9        30.37F
PERU/GRISSOM   CLOUDY    61  21  21 E10       30.37F
ROCHESTER +    FAIR      59  21  23 NE5       30.38F
SOUTH BEND     PTSUNNY   55  23  28 NW6       30.41F
WARSAW +       CLOUDY    54  28  37 CALM      30.39F

$$

INZ006>009-017-018-025>027-212200-
NORTHEAST INDIANA

CITY           SKY/WX    TMP DP  RH WIND       PRES   REMARKS
ANGOLA *+      FAIR      55  23  28 MISG      30.39S
AUBURN +       CLOUDY    54  23  30 CALM      30.40F
FORT WAYNE     CLOUDY    54  25  32 E7        30.40S
HUNTINGTON +   PTSUNNY   54  22  28 NE7       30.39F
KENDALLVILLE + CLOUDY    55  11  17 CALM      30.40S

$$

INZ028-029-035-036-043>045-051>053-212200-
WEST CENTRAL INDIANA

CITY           SKY/WX    TMP DP  RH WIND       PRES   REMARKS
CRAWFORDSVL +  FAIR      58  28  31 E9        30.31F
GREENCASTLE +  FAIR      57  28  33 E10       30.31F
LAFAYETTE      PTSUNNY   58  29  33 NE14G21   30.33F
TERRE HAUTE    FAIR      62  32  32 E10       30.30F

$$

INZ030>032-037>040-046>048-054>057-064-065-212200-
CENTRAL INDIANA

CITY           SKY/WX    TMP DP  RH WIND       PRES   REMARKS
COLUMBUS       PTSUNNY   59 N/A N/A NE12      30.32F
FRANKFORT +    PTSUNNY   63  23  21 E10G17    30.35F
GREENWOOD *+   FAIR      58  24  26 E8        30.33F
INDIANAPOLIS   PTSUNNY   60  21  22 NE9       30.32F
-EAGLE CREEK   FAIR      59  24  26 E9        30.32F
KOKOMO +       CLOUDY    57  23  26 E10       30.37F
MARION +       CLOUDY    55  22  27 CALM      30.37F
MT COMFORT *+  FAIR      59  30  33 E7        30.33F
SHELBYVILLE    FAIR      61  21  21 NE10      30.32F
ZIONSVILLE +   FAIR      58  20  23 E7        30.34F

$$

INZ033-034-041-042-049-050-058-059-212200-
EAST CENTRAL INDIANA

CITY           SKY/WX    TMP DP  RH WIND       PRES   REMARKS
MUNCIE         CLOUDY    59  20  22 E9        30.36F
RICHMOND +     FAIR      54  23  30 E10       30.35F

$$

INZ060-061-067>069-081>083-085>088-212200-
SOUTHWEST INDIANA

CITY           SKY/WX    TMP DP  RH WIND       PRES   REMARKS
EVANSVILLE     FAIR      68  28  22 NE9       30.23F
HUNTINGBURG +  FAIR      69  31  24 N3        30.24F
WASHINGTON +   FAIR      66  22  19 NE7       30.26F

$$

INZ062-063-066-070>080-084-089>092-212200-
SOUTH CENTRAL AND SOUTHEAST INDIANA

CITY           SKY/WX    TMP DP  RH WIND       PRES   REMARKS
BATESVILLE +   SUNNY     57  23  26 MISG      30.33S
BEDFORD +      FAIR      64  21  19 MISG      30.28F
BLOOMINGTON    FAIR      61  28  28 NE12      30.28F
FRENCH LICK *+ FAIR      64  10  12 NE9       30.26F
MADISON *+     FAIR      64  19  17 NE7       30.30F
NORTH VERNON + FAIR      61  27  27 NE10      30.31F
SEYMOUR +      FAIR      66  32  28 N3        30.28F

$$





USA.gov is the U.S. government's official web portal to all federal, state and local government web resources and services.